Aérodrome :
LOGIN :

S'inscrire | Disclaimer

   EN    FR    IT 

 










Légende :    VFR   VFR Marginal   IFR   IFR Intensif   IFR Très Intensif
Visi : 
Plafond : 
>= 8 km
>= 3000ft
5 à 8 km
1000 à 3000 ft
1500m à 5 km
500 à 1000 ft
800 à 1500m
200 à 500 ft
< 800m
< 200 ft
Symboles :   Orages  Brouillard  Fortes neiges  Fortes précipitations  Vent > 20 kt
SIGMETs :   Divers  Orages  Givrage  Turbulence  Onde Orograph.  Cendres Volcan.






- Altitude de l'aérodrome : 202 ft
- Code IATA : LGW


EGKK - London Gatwick

DERNIER METAR :
  • 280720Z 32009KT CAVOK M00/M04 Q1006

METARs EXPIRÉS :
  • 280650Z 33010KT CAVOK M00/M04 Q1005
  • 280620Z 32014KT CAVOK M00/M04 Q1005
  • 280550Z 33012KT CAVOK M00/M04 Q1005
  • 280520Z 33011KT CAVOK 00/M04 Q1005
  • 280450Z 32015KT CAVOK 00/M04 Q1004

TAF TAF EGKK
Valide du 28 à 06h jusqu'au 29 à 12h UTC


280448Z 2806/2912 33012KT 9999 FEW025
PROB30
TEMPO 2900/2911 BKN008



MET'MAP, la Météo Aéronautique d'un coup d'oeil ! - Copyright ORBIFLY Décembre 2007 - Disclaimer

ORBIFLY MET'MAP TEAM :

Programmation & Développement : Alexandra Zaïnal
Sur une idée originale de : Baudouin d'Aumeries
Assistance à la programmation : Marc-Olivier Méhu
Soutien technique & logistique : Manuel Goepfert

Contact : metmap@orbifly.com




SOURCES & CREDITS :

   NOAA